User: anonymous   Login
Location: Munkebjergskolens Observatorium
(55.3864°N, 10.3987°E)
Time: 14:50:11
(UTC+02:00)
Language:

KKS-1 - Orbit

View from above orbital plane
View from above orbital plane
View from above satellite
View from above satellite

Ground track
Ground track

The orbit data is extracted from the following two-line orbital elements,

1 33499U 09002H   23086.82719651  .00002207  00000-0  32203-3 0  9991
2 33499  98.1827 338.0758 0009928 122.9169 237.2997 14.76789903762050
Epoch (UTC): 27 March 2023 19:51:09
Eccentricity: 0.0009928
inclination: 98.1827°
perigee height: 632 km
apogee height: 646 km
right ascension of ascending node: 338.0758°
argument of perigee: 122.9169°
revolutions per day: 14.76789903
mean anomaly at epoch: 237.2997°
orbit number at epoch: 76205

The dashed part of the orbit path shows where the satellite is in the earth's shadow,  

DLR